FENGYUN 1C DEB, 30494

Orbit data source: Space-Track

FENGYUN 1C DEB, 30494 is space debris in SSO originally from a launch on Mon, 10 May 1999 UTC launched from the Taiyaun Space Center, China (TSC). Fengyun 1C debris stems from the Chinese weather satellite Fengyun-1C, which was intentionally destroyed by a Chinese anti-satellite missile in 2007. This event dramatically increased the amount of space debris, with thousands of trackable fragments posing hazards to satellites and human spaceflight. The Fengyun 1C debris cloud has become a focal point in discussions about space sustainability and the need for international regulations to prevent the creation of new debris.

Loading next visibility...
Identifier
30494, 1999-025AHG
Orbit
SSO
Country
Flag of CNCN / PRC
Related business
Manufacturer
Unknown
Mission
Spacecraft
Bus & Motor
Unknown
Mass
Unknown
Launch date (UTC)
1999-05-10 (27 years ago)
Launch vehicle
Unknown
Launch site
Taiyaun Space Center, China (TSC)
Object type
Payload
Rocket body
Debris
Shape & HBR
Unknown shape, 0.1 m
Radar Cross Section
Small (<0.1 m²)

Expand to show TLE details & history
Last TLE update: 2 days ago

TLE from 2 days ago
0 FENGYUN 1C DEB
1 30494U 99025AHG 26061.58248321  .00001411  00000-0  12420-2 0  9991
2 30494  99.2718 100.3830 0183688  11.2778 349.2407 13.79627068955875
Epoch: 2026-03-02T13:58Z
TLE epoch observation values (Epoch: 2026-03-02T13:58:46.549Z)
Latitude
-0.00004°
Longitude
90.31523°
Altitude
835.598 km
Speed
7.502 km/s
True Right ascension
06h 41m 31s
True Declination
0° 00' 00"
Sunlit
Object was in daylight at epoch
Visualization orbit readout
Latitude
Unknown
Longitude
Unknown
Altitude
Unknown
Speed
Unknown
Apparent Right ascension
Unknown
Apparent Declination
Unknown
Sunlit
N/A
Visualization observer readout
Local Sidereal Time
15:31:01
Azimuth
Unknown
Elevation
Unknown
Doppler factor
Unknown
Orbital elements
Apogee altitude
1,097.286 km
Perigee altitude
827.611 km
Semi-major axis
7,340.585 km
Eccentricity
0.01837
Inclination
99.2718°
RAAN
100.383°
Arg. of periapsis
11.2778°
True anomaly
348.83869°
Mean anomaly
349.2407°
Eccentric anomaly
349.04061°
Mean motion
3.45102 °/min
Orbital period
104.32 mins
BSTAR
0.001242
Loading maneuver chart data...
Computing Atmospheric mass density...

Documentation

Showing up to 5 results
|